• în România
  • Lista ţărilor
  • Pe 7 zile
  • Temperatura apei
  • Hartă satelitară
  • Meteo pe hartă
  • Widget-uri
  • user-avatar
    Intrare

    Meteo pe oră la Novolopatinskiy

    Astăzi, 21 Iunie, Joi

    Timp Temperatura Precipitaţii Vânt Presiune Umiditate
    00:00 +15°C° 0 mm 2 m/s 750 mmHg 83%
    01:00 +15°C° 0 mm 2 m/s 750 mmHg 83%
    02:00 +14°C° 0 mm 2 m/s 750 mmHg 82%
    03:00 +13°C° 0 mm 2 m/s 750 mmHg 82%
    04:00 +14°C° 0 mm 3 m/s 750 mmHg 80%
    05:00 +16°C° 0 mm 3 m/s 750 mmHg 77%
    06:00 +17°C° 0 mm 4 m/s 750 mmHg 75%
    07:00 +19°C° 0 mm 5 m/s 750 mmHg 67%
    08:00 +20°C° 0 mm 6 m/s 750 mmHg 59%
    09:00 +21°C° 0 mm 7 m/s 750 mmHg 53%
    10:00 +22°C° 0 mm 7 m/s 750 mmHg 51%
    11:00 +22°C° 0 mm 7 m/s 750 mmHg 49%
    12:00 +23°C° 0 mm 7 m/s 750 mmHg 47%
    13:00 +23°C° 0 mm 7 m/s 750 mmHg 47%
    14:00 +23°C° 0 mm 7 m/s 750 mmHg 47%
    15:00 +23°C° 0 mm 7 m/s 750 mmHg 48%
    16:00 +22°C° 0 mm 6 m/s 750 mmHg 53%
    17:00 +21°C° 0 mm 5 m/s 750 mmHg 59%
    18:00 +20°C° 0 mm 4 m/s 750 mmHg 64%
    19:00 +19°C° 0 mm 4 m/s 750 mmHg 65%
    20:00 +19°C° 0 mm 4 m/s 750 mmHg 67%
    21:00 +18°C° 0 mm 4 m/s 750 mmHg 68%
    22:00 +17°C° 0 mm 4 m/s 751 mmHg 72%
    23:00 +15°C° 0 mm 4 m/s 751 mmHg 75%

    Mâine, 22 Iunie, Vineri

    Timp Temperatura Precipitaţii Vânt Presiune Umiditate
    00:00 +14°C° 0 mm 4 m/s 751 mmHg 79%
    01:00 +14°C° 0 mm 4 m/s 751 mmHg 80%
    02:00 +13°C° 0 mm 4 m/s 751 mmHg 81%
    03:00 +13°C° 0 mm 4 m/s 752 mmHg 82%
    04:00 +13°C° 0 mm 4 m/s 752 mmHg 79%
    05:00 +14°C° 0 mm 5 m/s 752 mmHg 76%
    06:00 +15°C° 0 mm 5 m/s 752 mmHg 73%
    07:00 +17°C° 0 mm 5 m/s 752 mmHg 65%
    08:00 +19°C° 0 mm 6 m/s 753 mmHg 58%
    09:00 +21°C° 0 mm 6 m/s 753 mmHg 51%
    10:00 +22°C° 0 mm 6 m/s 753 mmHg 49%
    11:00 +23°C° 0 mm 6 m/s 753 mmHg 47%
    12:00 +23°C° 0 mm 6 m/s 753 mmHg 45%
    13:00 +23°C° 0 mm 6 m/s 753 mmHg 45%
    14:00 +24°C° 0 mm 6 m/s 753 mmHg 46%
    15:00 +24°C° 0 mm 6 m/s 753 mmHg 46%
    16:00 +23°C° 0 mm 5 m/s 753 mmHg 51%
    17:00 +23°C° 0 mm 4 m/s 753 mmHg 56%
    18:00 +22°C° 0 mm 3 m/s 753 mmHg 61%
    19:00 +21°C° 0 mm 2 m/s 754 mmHg 65%
    20:00 +19°C° 0 mm 2 m/s 754 mmHg 69%
    21:00 +18°C° 0 mm 1 m/s 754 mmHg 74%
    22:00 +16°C° 0 mm 1 m/s 754 mmHg 75%
    23:00 +16°C° 0 mm 1 m/s 754 mmHg 76%

    Poimâine, 23 Iunie, Sâmbătă

    Timp Temperatura Precipitaţii Vânt Presiune Umiditate
    00:00 +16°C° 0 mm 1 m/s 754 mmHg 77%
    01:00 +15°C° 0 mm 1 m/s 755 mmHg 79%
    02:00 +15°C° 0 mm 2 m/s 755 mmHg 81%
    03:00 +15°C° 0 mm 2 m/s 755 mmHg 83%
    04:00 +16°C° 0 mm 2 m/s 755 mmHg 81%
    05:00 +18°C° 0 mm 2 m/s 755 mmHg 79%
    06:00 +19°C° 0 mm 2 m/s 755 mmHg 77%
    07:00 +21°C° 0 mm 2 m/s 755 mmHg 72%
    08:00 +24°C° 0 mm 2 m/s 755 mmHg 67%
    09:00 +25°C° 0 mm 2 m/s 755 mmHg 63%
    10:00 +26°C° 0 mm 2 m/s 755 mmHg 59%
    11:00 +27°C° 0 mm 2 m/s 755 mmHg 56%
    12:00 +28°C° 0 mm 3 m/s 755 mmHg 53%
    13:00 +29°C° 0 mm 3 m/s 755 mmHg 53%
    14:00 +29°C° 0 mm 3 m/s 755 mmHg 53%
    15:00 +29°C° 0 mm 3 m/s 754 mmHg 52%
    16:00 +29°C° 0 mm 2 m/s 754 mmHg 56%
    17:00 +28°C° 0 mm 2 m/s 754 mmHg 60%
    18:00 +28°C° 0 mm 2 m/s 754 mmHg 64%
    19:00 +26°C° 0 mm 1 m/s 754 mmHg 70%
    20:00 +24°C° 0 mm 1 m/s 754 mmHg 75%
    21:00 +22°C° 0 mm 1 m/s 754 mmHg 80%
    22:00 +22°C° 0 mm 1 m/s 754 mmHg 81%
    23:00 +21°C° 0 mm 1 m/s 755 mmHg 82%

    24 Iunie, Duminică

    Timp Temperatura Precipitaţii Vânt Presiune Umiditate
    00:00 +21°C° 0 mm 1 m/s 755 mmHg 83%
    01:00 +21°C° 0 mm 1 m/s 755 mmHg 84%
    02:00 +21°C° 0 mm 1 m/s 755 mmHg 85%
    03:00 +20°C° 0 mm 1 m/s 755 mmHg 85%
    04:00 +21°C° 0 mm 1 m/s 755 mmHg 81%
    05:00 +23°C° 0 mm 1 m/s 755 mmHg 77%
    06:00 +24°C° 0 mm 1 m/s 755 mmHg 73%
    07:00 +26°C° 0 mm 1 m/s 755 mmHg 68%
    08:00 +27°C° 0 mm 1 m/s 755 mmHg 63%
    09:00 +29°C° 0 mm 1 m/s 756 mmHg 58%
    10:00 +29°C° 0 mm 1 m/s 755 mmHg 55%
    11:00 +30°C° 0 mm 1 m/s 755 mmHg 52%
    12:00 +31°C° 0 mm 1 m/s 755 mmHg 49%
    13:00 +31°C° 0 mm 2 m/s 755 mmHg 49%
    14:00 +32°C° 0 mm 2 m/s 755 mmHg 48%
    15:00 +32°C° 0 mm 2 m/s 755 mmHg 48%
    16:00 +31°C° 0 mm 2 m/s 755 mmHg 52%
    17:00 +31°C° 0 mm 2 m/s 755 mmHg 55%
    18:00 +30°C° 0 mm 1 m/s 755 mmHg 59%
    19:00 +28°C° 0 mm 1 m/s 756 mmHg 64%
    20:00 +27°C° 0 mm 1 m/s 756 mmHg 68%
    21:00 +25°C° 0 mm 1 m/s 756 mmHg 72%
    22:00 +24°C° 0 mm 1 m/s 756 mmHg 75%
    23:00 +22°C° 0 mm 0 m/s 756 mmHg 77%

    25 Iunie, Luni

    Timp Temperatura Precipitaţii Vânt Presiune Umiditate
    00:00 +21°C° 0 mm 0 m/s 756 mmHg 79%
    01:00 +21°C° 0 mm 0 m/s 757 mmHg 80%
    02:00 +21°C° 0 mm 0 m/s 757 mmHg 81%
    03:00 +20°C° 0 mm 0 m/s 757 mmHg 83%
    04:00 +22°C° 0 mm 0 m/s 757 mmHg 80%
    05:00 +23°C° 0 mm 0 m/s 757 mmHg 77%
    06:00 +24°C° 0 mm 0 m/s 757 mmHg 74%
    07:00 +25°C° 0,2 mm 0 m/s 758 mmHg 69%
    08:00 +26°C° 0,2 mm 0 m/s 758 mmHg 65%
    09:00 +28°C° 0,2 mm 0 m/s 758 mmHg 60%
    10:00 +28°C° 0,1 mm 0 m/s 758 mmHg 57%
    11:00 +29°C° 0,1 mm 0 m/s 758 mmHg 54%
    12:00 +30°C° 0,1 mm 0 m/s 758 mmHg 50%
    13:00 +32°C° 0 mm 1 m/s 758 mmHg 51%
    14:00 +32°C° 0 mm 1 m/s 758 mmHg 51%
    15:00 +32°C° 0 mm 1 m/s 758 mmHg 51%
    16:00 +31°C° 0,2 mm 1 m/s 758 mmHg 55%
    17:00 +31°C° 0,2 mm 1 m/s 758 mmHg 58%
    18:00 +31°C° 0,2 mm 1 m/s 757 mmHg 61%
    19:00 +29°C° 0,1 mm 1 m/s 758 mmHg 65%
    20:00 +27°C° 0,1 mm 1 m/s 758 mmHg 69%
    21:00 +25°C° 0,1 mm 1 m/s 758 mmHg 74%
    22:00 +25°C° 0 mm 1 m/s 758 mmHg 76%
    23:00 +24°C° 0 mm 1 m/s 758 mmHg 79%

    26 Iunie, Marţi

    Timp Temperatura Precipitaţii Vânt Presiune Umiditate
    00:00 +23°C° 0 mm 1 m/s 758 mmHg 81%
    01:00 +23°C° 0 mm 1 m/s 758 mmHg 82%
    02:00 +23°C° 0 mm 1 m/s 758 mmHg 84%
    03:00 +22°C° 0 mm 1 m/s 758 mmHg 85%
    04:00 +23°C° 0 mm 1 m/s 758 mmHg 82%
    05:00 +24°C° 0 mm 1 m/s 758 mmHg 80%
    06:00 +26°C° 0 mm 2 m/s 758 mmHg 77%
    07:00 +27°C° 0,1 mm 2 m/s 758 mmHg 72%
    08:00 +28°C° 0,1 mm 3 m/s 758 mmHg 67%
    09:00 +29°C° 0,1 mm 3 m/s 758 mmHg 62%
    10:00 +30°C° 0,1 mm 4 m/s 758 mmHg 59%
    11:00 +32°C° 0,1 mm 4 m/s 758 mmHg 56%
    12:00 +32°C° 0,1 mm 4 m/s 758 mmHg 53%
    13:00 +32°C° 0,4 mm 5 m/s 758 mmHg 55%
    14:00 +32°C° 0,4 mm 5 m/s 758 mmHg 57%
    15:00 +32°C° 0,4 mm 5 m/s 758 mmHg 59%
    16:00 +30°C° 0,1 mm 5 m/s 758 mmHg 62%
    17:00 +30°C° 0,1 mm 4 m/s 758 mmHg 65%
    18:00 +29°C° 0,1 mm 3 m/s 758 mmHg 68%
    19:00 +28°C° 0 mm 3 m/s 758 mmHg 73%
    20:00 +26°C° 0 mm 3 m/s 758 mmHg 77%
    21:00 +25°C° 0 mm 3 m/s 758 mmHg 82%
    22:00 +24°C° 0 mm 3 m/s 758 mmHg 84%
    23:00 +22°C° 0 mm 3 m/s 758 mmHg 87%
    Arată mai mult